TimeEDT,TemperatureF,Dew PointF,Humidity,Sea Level PressureIn,VisibilityMPH,Wind Direction,Wind SpeedMPH,Gust SpeedMPH,PrecipitationIn,Events,Conditions,WindDirDegrees,DateUTC
12:53 AM,72.0,57.0,59,30.12,10.0,Calm,Calm,-,N/A,,Clear,0,2013-06-16 04:53:00
1:53 AM,71.1,55.9,59,30.11,10.0,Calm,Calm,-,N/A,,Clear,0,2013-06-16 05:53:00
2:53 AM,68.0,57.9,70,30.10,10.0,Calm,Calm,-,N/A,,Clear,0,2013-06-16 06:53:00
3:53 AM,66.9,64.0,90,30.09,10.0,Calm,Calm,-,N/A,,Clear,0,2013-06-16 07:53:00
4:53 AM,64.0,59.0,84,30.12,10.0,Calm,Calm,-,N/A,,Clear,0,2013-06-16 08:53:00
5:53 AM,66.0,60.1,81,30.13,10.0,Calm,Calm,-,N/A,,Clear,0,2013-06-16 09:53:00
6:53 AM,66.0,61.0,84,30.14,10.0,Calm,Calm,-,N/A,,Clear,0,2013-06-16 10:53:00
7:53 AM,68.0,63.0,84,30.16,10.0,West,3.5,-,N/A,,Clear,260,2013-06-16 11:53:00
8:53 AM,72.0,64.9,78,30.17,10.0,WSW,5.8,-,N/A,,Clear,250,2013-06-16 12:53:00
9:53 AM,75.0,64.9,71,30.17,10.0,West,5.8,-,N/A,,Clear,280,2013-06-16 13:53:00
10:53 AM,78.1,66.0,66,30.14,10.0,Variable,3.5,-,N/A,,Scattered Clouds,0,2013-06-16 14:53:00
11:53 AM,80.1,64.9,60,30.13,10.0,SSW,8.1,-,N/A,,Scattered Clouds,210,2013-06-16 15:53:00
12:53 PM,80.1,63.0,56,30.12,10.0,Calm,Calm,-,N/A,,Scattered Clouds,0,2013-06-16 16:53:00
1:53 PM,82.9,63.0,51,30.10,10.0,SW,3.5,-,N/A,,Scattered Clouds,220,2013-06-16 17:53:00
2:53 PM,84.0,64.0,51,30.08,10.0,Variable,3.5,-,N/A,,Scattered Clouds,0,2013-06-16 18:53:00
3:53 PM,82.9,63.0,51,30.07,10.0,SE,3.5,-,N/A,,Scattered Clouds,140,2013-06-16 19:53:00
4:53 PM,84.9,64.0,49,30.06,10.0,Variable,3.5,-,N/A,,Mostly Cloudy,0,2013-06-16 20:53:00
5:53 PM,82.0,64.0,54,30.05,10.0,South,5.8,-,N/A,,Mostly Cloudy,170,2013-06-16 21:53:00
6:53 PM,81.0,66.0,60,30.04,10.0,South,5.8,-,N/A,,Partly Cloudy,180,2013-06-16 22:53:00
7:53 PM,80.1,66.9,64,30.04,10.0,South,3.5,-,N/A,,Mostly Cloudy,170,2013-06-16 23:53:00
8:53 PM,79.0,66.9,66,30.05,10.0,South,4.6,-,N/A,,Overcast,180,2013-06-17 00:53:00
9:53 PM,75.0,66.9,76,30.06,7.0,SE,4.6,-,0.08,Rain,Light Rain,140,2013-06-17 01:53:00
10:18 PM,73.4,68.0,83,30.11,10.0,East,9.2,-,0.05,Thunderstorm,Thunderstorm,90,2013-06-17 02:18:00
10:37 PM,73.4,69.8,88,30.11,10.0,ESE,4.6,-,0.05,,Mostly Cloudy,120,2013-06-17 02:37:00
10:53 PM,73.9,68.0,82,30.06,10.0,Calm,Calm,-,0.05,,Mostly Cloudy,0,2013-06-17 02:53:00
11:53 PM,73.9,68.0,82,30.06,10.0,South,5.8,-,0.02,Rain,Light Rain,170,2013-06-17 03:53:00